Regional Weather Roundup
Issued by NWS Boston, MA

Home | Current Version | Previous Version | Text Only | Print | Product List | Glossary On
Versions: 1 2 3 4 5 6 7 8 9 10 11 12 13 14 15 16 17 18 19 20 21 22 23 24 25 26 27
000
ASUS41 KBOX 270510
RWRBOX

REGIONAL WEATHER ROUNDUP
NATIONAL WEATHER SERVICE BOSTON/NORTON MA
100 AM EDT FRI APR 27 2018

NOTE:  "FAIR" INDICATES FEW OR NO CLOUDS BELOW 12,000 FEET WITH NO
SIGNIFICANT WEATHER AND/OR OBSTRUCTIONS TO VISIBILITY.

MAZALL-270600-
EASTERN MASSACHUSETTS

CITY           SKY/WX    TMP DP  RH WIND       PRES   REMARKS
BOSTON         FAIR      52  42  69 W9        29.85R
BEVERLY        FAIR      50  41  71 W6        29.83S
LAWRENCE       FAIR      51  41  68 W7        29.85S
BEDFORD        FAIR      48  40  73 SW5       29.84S
BLUE HILL        N/A     48  41  76 W13       29.83F
NORWOOD        FAIR      52  42  69 W5        29.85F
MARSHFIELD     FAIR      52  43  71 VRB3      29.85R
PLYMOUTH       FAIR      51  42  71 W6        29.86R
TAUNTON        FAIR      52  41  66 CALM      29.86R
NEW BEDFORD    FAIR      51  42  71 W9        29.87R
$$

MAZALL-270600-
CAPE COD AND THE ISLANDS

CITY           SKY/WX    TMP DP  RH WIND       PRES   REMARKS
FALMOUTH         N/A     45  43  93 CALM      29.88
HYANNIS        FAIR      44  42  93 W3        29.85S
CHATHAM        FAIR      47  45  93 CALM      29.87S
PROVINCETOWN   FAIR      47  43  86 W7        29.86R
NANTUCKET      FAIR      44  44 100 SW9       29.88R
MARTHAS VNYRD  FAIR      44  42  93 SW5       29.87R
$$

MAZALL-270600-
CENTRAL AND WESTERN MASSACHUSETTS

CITY           SKY/WX    TMP DP  RH WIND       PRES   REMARKS
WORCESTER      FAIR      45  38  76 W8        29.85S
FITCHBURG      FAIR      50  42  74 W6        29.86S
ORANGE         FAIR      45  40  82 CALM      29.87F
SPRINGFIELD    FAIR      45  38  79 CALM      29.87S
WESTFIELD      FAIR      45  41  86 CALM      29.88R
NORTH ADAMS    FAIR      46  37  71 W10       29.87F
PITTSFIELD     FAIR      44  36  73 W7        29.86F
$$

RIZALL-270600-
RHODE ISLAND

CITY           SKY/WX    TMP DP  RH WIND       PRES   REMARKS
PROVIDENCE     FAIR      54  42  64 W7        29.88R
NEWPORT        FAIR      53  42  66 NW12      29.87R
BLOCK ISLAND   FAIR      46  43  89 SW6       29.90R
SMITHFIELD     FAIR      50  40  68 MISG      29.87R
WESTERLY       FAIR      48  43  82 CALM      29.88S
$$

CTZALL-270600-
CONNECTICUT

CITY           SKY/WX    TMP DP  RH WIND       PRES   REMARKS
BRADLEY INTL   FAIR      48  41  76 NW3       29.88R
HARTFORD       FAIR      49  42  77 CALM      29.89R
BRIDGEPORT     FAIR      52  42  69 CALM      29.89R
DANBURY        FAIR      43  40  89 CALM      29.89R
GROTON         FAIR      47  45  93 SW5       29.88R
NEW HAVEN      FAIR      48  41  76 S5        29.89R
CHESTER        FAIR      50  41  71 CALM      29.88S
MERIDEN        FAIR      46  42  86 CALM      29.89R
WILLIMANTIC    FAIR      52  41  66 CALM      29.89R
OXFORD         FAIR      46  40  79 S3        29.89R
$$

MEZ002-015-021-024-NHZ003-005-008-011-012-014-VTZ005-008-270600-
NORTHERN NEW ENGLAND

CITY           SKY/WX    TMP DP  RH WIND       PRES   REMARKS
PORTLAND ME    FAIR      50  41  71 W7        29.79R
BANGOR ME      FAIR      49  45  86 SW3       29.73R
CONCORD NH     FAIR      44  39  82 N5        29.83S
MANCHESTER NH  FAIR      50  40  68 SW5       29.83R
NASHUA NH      FAIR      48  42  80 VRB3      29.85R
PORTSMOUTH NH  PTCLDY    48  40  73 SW9       29.81
JAFFREY NH     FAIR      45  41  86 W7        29.85S
KEENE NH       FAIR      42  39  89 CALM      29.87S
BURLINGTON VT  CLOUDY    50  41  71 S9        29.84R
MT. WASHINGTON FOG       28  28 100 NW47        N/A  VSB 1/16WCI  10
$$

NYZ052-076-270600-
EASTERN NEW YORK

CITY           SKY/WX    TMP DP  RH WIND       PRES   REMARKS
ALBANY         MOCLDY    40  36  86 CALM      29.90F
NEW YORK CITY  MOCLDY    57  42  57 E6        29.88R
$$

ANZALL-270600-
MARINE OBSERVATIONS

STATION/POSITION TIME  TEMP    WIND        PRES    VSBY  WAVE
                       AIR SEA DIR/SP/G                  HT/PER
                 (UTC) (F)     (DEG/KT/KT) (MB)    (MI)  (FT/S)
BOSTON BUOY      0450   49 46  270/  8/ 10 1010.5R         5/11
BUZZARDS BAY     0400   52     250/ 10/ 11 1012.0R
NANTUCKET SOUND  0350   48 46  260/ 10/ 10 1011.0          2/ 5
MASS BAY-STELLWA 0404   47 45              1008.8R         6/11
ISLE OF SHOALS   0400   49     240/ 13/ 14 1009.5R
S OF BLOCK IS    0443      44                N/A           8/10
$$

......................KEY.........................
  SKY/WX - SKY CONDITION/PRESENT WEATHER
  TMP    - TEMPERATURE IN FAHRENHEIT
  DWPT   - DEWPOINT IN FAHRENHEIT
  RH     - RELATIVE HUMIDITY IN PERCENT
  WIND   - DIRECTION AND SPEED IN MPH
  PRES   - MEAN SEA LEVEL PRESSURE IN INCHES OF HG
  WCI    - WIND CHILL INDEX
  VSB    - VISIBILITY IN MILES
  HX     - HEAT INDEX
  TC     - TEMPERATURE IN CELSIUS
  VRB    - VARIABLE WIND DIRECTION
  N/A    - NOT AVAILABLE




USA.gov is the U.S. government's official web portal to all federal, state and local government web resources and services.